Regional Weather Roundup
Issued by NWS

Home | Current Version | Previous Version | Graphics & Text | Print | Product List | Glossary On
Versions: 1 2 3 4 5 6 7 8 9 10 11 12 13 14 15 16 17 18 19 20 21 22 23 24 25 26 27 28 29 30 31 32 33 34 35 36 37 38 39 40 41 42 43 44 45 46 47 48 49 50
000
ASUS43 KLOT 221410
RWRIL

ILLINOIS REGIONAL WEATHER ROUNDUP
NATIONAL WEATHER SERVICE CHICAGO/ROMEOVILLE IL
900 AM CDT FRI AUG 22 2014

NOTE: "FAIR" INDICATES FEW OR NO CLOUDS BELOW 12,000 FEET WITH NO
SIGNIFICANT WEATHER AND/OR OBSTRUCTIONS TO VISIBILITY.

* THESE STATIONS ARE NOT UNDER NWS QUALITY CONTROL. THEY ALSO MAY NOT
  REPORT WEATHER SUCH AS PRECIPITATION OR FOG.

ILZ001-002-007-009-015-016-024-221500-
NORTHWEST ILLINOIS

CITY           SKY/WX    TMP DP  RH WIND       PRES   REMARKS
MOLINE         TSTM      71  69  93 SE14      29.92R FOG
STERLING*      CLOUDY    75  73  94 SW5       29.93S
SAVANNA*       CLOUDY    77  73  88 SE5       29.92R
$$

ILZ003-004-008-010-011-017-018-221500-
NORTH CENTRAL ILLINOIS

CITY           SKY/WX    TMP DP  RH WIND       PRES   REMARKS
ROCKFORD       CLOUDY    77  73  87 S8        29.95R
FREEPORT*      CLOUDY    74  73  96 CALM      29.96R FOG
ROCHELLE*      CLOUDY    76  73  90 S9        29.95R
DE KALB*       PTSUNNY   75  73  91 SW9       29.96R
PERU*          CLOUDY    74  72  93 S12G17    29.94F
$$

ILZ005-006-012>014-019>023-221500-
NORTHEAST ILLINOIS

CITY           SKY/WX    TMP DP  RH WIND       PRES   REMARKS
CHICAGO-OHARE  CLOUDY    77  71  82 SW5       29.93S
CHICAGO-MIDWAY CLOUDY    79  74  84 SW7       29.94R HX  82
AURORA         CLOUDY    77  73  87 SW9       29.95R
LANSING*       CLOUDY    74  72  92 S8        29.96R
JOLIET*        CLOUDY    75  72  89 S7        29.96R
WAUKEGAN       CLOUDY    74  72  93 CALM      29.94R
DUPAGE AIRPORT PTSUNNY   77  73  87 SW8       29.94R
KANKAKEE*      CLOUDY    74  72  95 SW7       29.97S
WHEELING       PTSUNNY   78  72  81 CALM      29.95R HX  80
MORRIS*        CLOUDY    76  73  92 SW8G18    29.94F
ROMEOVILLE*    CLOUDY    76  74  93 SW8       29.95R
NORTHERLY ISL    N/A     75  71  87 E6          N/A
$$

LMZ740>746-221500-
SOUTHERN LAKE MICHIGAN

STATION/POSITION SKY/WX   TEMP    WIND        PRES    VSBY  WAVE
                          AIR SEA DIR/SP/G                  HT/PER
                          (F)     (DEG/KT/KT) (MB)    (MI)  (FT/S)
SOUTHERN BUOY              69 69   90/  2/  4 1014.3R         0
WAUKEGAN HARBOR            72      50/  3/  4   N/A
HARRISON CRIB              74     140/ 10/ 11   N/A
BURNHAM HARBOR             74     140/  6/  6   N/A
CALUMET HARBOR             75     170/  6/  8 1012.9R
MICHIGAN CITY              74     140/  9/ 13   N/A
MICHIGAN CITY 6N           73 71  160/  6/  8   N/A           0
ST. JOSEPH                 73 71  140/  6/  8   N/A           1
$$

ILZ025>027-034>036-040-047-049-050-058-095>099-221500-
WEST-CENTRAL ILLINOIS

CITY           SKY/WX    TMP DP  RH WIND       PRES   REMARKS
QUINCY         CLOUDY    77  72  84 S5        29.96F
GALESBURG*     LGT RAIN  74  74  99 CALM      29.96S
MACOMB*        LGT RAIN  74  74 100 SE7       29.96F
JACKSONVILLE*  PTSUNNY   80  73  80 CALM      30.01S HX  84
PITTSFIELD*    CLOUDY    80  72  76 SW3       30.00S HX  83
$$

ILZ028>032-037-038-041>044-048-051>054-059>061-221500-
CENTRAL ILLINOIS

CITY           SKY/WX    TMP DP  RH WIND       PRES   REMARKS
PONTIAC        CLOUDY    73  73 100 CALM      29.95F
DECATUR        CLOUDY    77  73  87 N12       30.05R
PEORIA         LGT RAIN  75  71  87 S10       29.98R
LACON*         CLOUDY    72  69  92 S6        29.93F
LINCOLN*       TSTM      73  72  95 E7        29.98R
SPRINGFIELD    CLOUDY    78  74  87 CALM      30.00S HX  81
TAYLORVILLE    PTSUNNY   75  72  88 CALM      30.02R
$$

ILZ033-039-045-046-055>057-062-063-221500-
EAST-CENTRAL ILLINOIS

CITY           SKY/WX    TMP DP  RH WIND       PRES   REMARKS
CHAMPAIGN      LGT RAIN  73  72  96 W3        30.05R
DANVILLE*      HVY RAIN  72  72  99 CALM      29.95F
RANTOUL*       TSTM      74  72  91 SW12      30.02R
MATTOON        CLOUDY    78  72  81 N5        30.02R HX  80
PARIS*         CLOUDY    76  74  92 CALM      30.02S
$$

ILZ079-100>102-221500-
SOUTHWEST ILLINOIS

CITY           SKY/WX    TMP DP  RH WIND       PRES   REMARKS
ALTON          PTSUNNY   81  77  89 W8        30.02R HX  88
BELLEVILLE     SUNNY     82  74  78 VRB3      30.02R HX  88
CAHOKIA*       SUNNY     82  72  71 VRB3      30.01R HX  87
SPARTA*        SUNNY     79  74  83 S6        30.04R HX  82
$$

ILZ064>066-069>071-074>076-080>082-084>086-088>090-092>094-221500-
SOUTH-CENTRAL ILLINOIS

CITY           SKY/WX    TMP DP  RH WIND       PRES   REMARKS
CARBONDALE     PTSUNNY   80  73  79 SW8       30.04R HX  84
CAIRO*         SUNNY     83  75  77 SW5       30.06R HX  91
MARION         PTSUNNY   81  75  83 SW8       30.05R HX  86
MT. VERNON     PTSUNNY   79  72  78 SW6       30.04R HX  82
CENTRALIA*     MOSUNNY   83  71  68 SW10      30.03R HX  87
SALEM*         MOSUNNY   81  74  79 SW7       30.03R HX  87
METROPOLIS*    MOSUNNY   82  72  71 SW6       30.05S HX  86
$$

ILZ067-068-072-073-078-083-087-091-221500-
SOUTHEAST ILLINOIS

CITY           SKY/WX    TMP DP  RH WIND       PRES   REMARKS
LAWRENCEVILLE  PTSUNNY   78  74  87 W5        30.02R HX  81
FLORA*         PTSUNNY   77  73  87 SW6       30.03R
FAIRFIELD*     PTSUNNY   79  75  89 SW6       30.03R HX  82
HARRISBURG*    PTSUNNY   80  76  88 SW6       30.05R HX  84
ROBINSON*      PTSUNNY   79  75  87 W8        30.03R HX  83
CARMI*         PTSUNNY   82  77  83 SW9       30.03S HX  91
$$

ABBREVIATIONS USED IN REMARKS
   TC - TEMPERATURE IN CELSIUS
  WCI - WIND CHILL INDEX
   HX - HEAT INDEX
  VSB - VISIBILITY
$$



USA.gov is the U.S. government's official web portal to all federal, state and local government web resources and services.